Regional Weather Roundup
Issued by NWS

Home | Current Version | Previous Version | Graphics & Text | Print | Product List | Glossary On
Versions: 1 2 3 4 5 6 7 8 9 10 11 12 13 14 15 16 17 18 19 20 21 22 23 24 25 26 27 28 29 30 31 32 33 34 35 36 37 38 39 40 41 42 43 44 45 46 47 48 49 50
000
ASUS43 KMPX 161510
RWRMN
WEATHER ROUNDUP FOR MINNESOTA
NATIONAL WEATHER SERVICE TWIN CITIES/CHANHASSEN MN
1000 AM CDT TUE SEP 16 2014


NOTE: "FAIR" INDICATES FEW OR NO CLOUDS BELOW 12,000 FEET WITH NO
SIGNIFICANT WEATHER AND/OR OBSTRUCTIONS TO VISIBILITY. N/A MEANS
CURRENT SKY AND/OR WEATHER CONDITIONS ARE NOT AVAILABLE.

MNZ060>063-068>070-161600-
   Twin Cities Metro

CITY           SKY/WX    TMP DP  RH WIND       PRES   REMARKS
TWIN CITIES    SUNNY     54  41  61 SW8       30.18S
ST PAUL        SUNNY     56  44  64 VRB3      30.18F
CRYSTAL        SUNNY     58  44  60 S8        30.15F
BLAINE         SUNNY     57  45  62 SW10      30.16S
LAKEVILLE      SUNNY     55  45  67 SW7       30.17F
EDEN PRAIRIE   SUNNY     52  43  71 SW8       30.17S
SOUTH ST PAUL  SUNNY     56  42  61 SW6       30.17F
LAKE ELMO      FAIR      55  43  62 SW6       30.18F
$$
MNZ001>005-007-008-013>017-022>024-027-028-161600-
   Northwest Minnesota

CITY           SKY/WX    TMP DP  RH WIND       PRES   REMARKS
BEMIDJI        SUNNY     56  38  51 W15G22    30.06F
HALLOCK        PTSUNNY   54  45  71 SW5       30.00F
ROSEAU         CLOUDY    52  45  76 SW6       30.00S
WARROAD        PTSUNNY   52  45  76 SW9       30.00R
THIEF RVR FALL MOSUNNY   54  39  58 SW10      30.04S
CROOKSTON      MOSUNNY   54  43  66 SW10      30.05F
FOSSTON        SUNNY     54  45  71 SW12G21   30.07F
DETROIT LAKES  SUNNY     55  41  58 SW6       30.10S
MOORHEAD       SUNNY     52  45  76 S7        30.09F
PARK RAPIDS    SUNNY     57  40  52 W12       30.09F
MAHNOMEN       FAIR      54  39  55 SW12      30.08F
$$
MNZ006-009>011-018-025>026-161600-
   North Central Minnesota

CITY           SKY/WX    TMP DP  RH WIND       PRES   REMARKS
BAUDETTE       CLOUDY    53  42  66 VRB3      30.00R
FLAG ISLAND    MOSUNNY   54  43  66 NW10      29.96S
INTL FALLS     PTSUNNY   55  43  63 W10G17    29.98S
WASKISH        CLOUDY    57  46  67 SW12      30.02F
BIG FORK       SUNNY     55  39  54 W13G18    30.03F
LONGVILLE      SUNNY     55  41  58 SW7       30.08F
GRAND RAPIDS   SUNNY     54  37  54 W10G17    30.07F
CRANE LAKE     MOSUNNY   52  43  71 CALM      30.01R
ORR            PTSUNNY   55  39  54 SW5       29.99S
COOK           MOSUNNY   55  41  58 SW10G21   30.01F
WALKER         FAIR      55  39  53 W12G20    30.08S
$$
MNZ012-019>021-037-161600-
   Northeast Minnesota

CITY           SKY/WX    TMP DP  RH WIND       PRES   REMARKS
DULUTH         MOSUNNY   57  38  48 W16       30.07F
ELY            PTSUNNY   54  43  66 SW8       30.00F
HIBBING        SUNNY     56  40  55 W10       30.05F
EVELETH        SUNNY     52  41  66 W10       30.05S
DULUTH HARBOR  SUNNY     55  45  67 SW12      30.08S
TWO HARBORS    SUNNY     57  39  51 W12G18    30.02F
SILVER BAY     SUNNY     55  45  67 W7G18     30.00S
GRAND MARAIS     N/A     53  47  79 SW14      29.98F
G MARAIS ARPRT MOSUNNY   54  37  54 W8        29.98F
$$
MNZ029>031-032-039>041-046>048-054>057-064-161600-
   West Central Minnesota

CITY           SKY/WX    TMP DP  RH WIND       PRES   REMARKS
FERGUS FALLS   SUNNY     54  39  58 S6        30.12S
WHEATON        SUNNY     55  45  67 S6        30.12S
MORRIS         SUNNY     57  45  62 S7        30.11F
ALEXANDRIA     SUNNY     54  41  61 SW9       30.14S
ELBOW LAKE     FAIR      53  43  66 S6        30.11F
WADENA         SUNNY     55  41  58 W9        30.10F
GLENWOOD       SUNNY     55  45  67 SW6       30.14S
APPLETON       SUNNY     55  45  67 SW6       30.12F
BENSON         SUNNY     54  45  71 W6        30.13F
ORTONVILLE     SUNNY     54  45  71 S6        30.11F
MADISON        SUNNY     59  48  67 SW7       30.12F
WILLMAR        FAIR      55  45  67 SW9       30.16F
$$
MNZ033>034-036-042>043-049>051-058-059-161600-
   Central Minnesota

CITY           SKY/WX    TMP DP  RH WIND       PRES   REMARKS
ST CLOUD       SUNNY     58  42  55 SW8       30.14F
SAUK CENTRE    FAIR      55  43  64 SW6       30.14S
PAYNESVILLE    SUNNY     55  42  62 SW12      30.16S
AITKIN         SUNNY     59  43  55 W7        30.09S
PINE RIVER     SUNNY     55  41  58 W6        30.13S
BRAINERD       SUNNY     53  42  66 SW7       30.12S
STAPLES        SUNNY     55  39  54 SW9       30.11S
LONG PRAIRIE   FAIR      54  41  62 SW7       30.14S
LITTLE FALLS   SUNNY     54  41  62 CALM      30.13S
LITCHFIELD     SUNNY     55  46  71 SW5       30.16S
BUFFALO        SUNNY     55  44  66 SW6       30.17S
MAPLE LAKE     SUNNY     56  46  68 SW5       30.17S
$$
MNZ037-044-045-052-053-161600-
   East Central Minnesota

CITY           SKY/WX    TMP DP  RH WIND       PRES   REMARKS
PRINCETON      SUNNY     55  45  67 MISG      30.15S
MORA           SUNNY     54  41  62 W6        30.15F
CAMBRIDGE      SUNNY     57  43  58 SW7       30.13S
RUSH CITY      SUNNY     55  42  61 SW5       30.14F
MOOSE LAKE     SUNNY     55  43  62 W6        30.09S
HINCKLEY       FAIR      54  43  66 SW10      30.13S
CLOQUET        SUNNY     55  37  50 W8G16     30.08F
MCGREGOR       SUNNY     55  41  58 W6        30.10F
$$
MNZ071>073-080-081-089-090-097-098-161600-
   Southwest Minnesota

CITY           SKY/WX    TMP DP  RH WIND       PRES   REMARKS
MONTEVIDEO     SUNNY     57  46  67 W8        30.15S
GRANITE FALLS  SUNNY     54  46  72 S8        30.16F
CANBY          SUNNY     58  45  62 SW14      30.14F
MARSHALL       SUNNY     57  45  62 SW12      30.14F
REDWOOD FALLS  SUNNY     56  45  66 SW10      30.16F
OLIVIA         SUNNY     54  45  71 SW8       30.15F
PIPESTONE      SUNNY     54  45  71 SW10      30.16S
WINDOM         SUNNY     55  45  67 S8        30.18F
WORTHINGTON    SUNNY     54  45  71 SW8       30.19S
JACKSON        SUNNY     55  43  62 SW9       30.19F
TRACY          SUNNY     56  46  68 SW8G16    30.16F
SLAYTON        SUNNY     54  44  68 SW10G16   30.18S
$$
MNZ065>067-074>077-082>085-091>093-161600-
   South Central Minnesota

CITY           SKY/WX    TMP DP  RH WIND       PRES   REMARKS
MANKATO        SUNNY     54  43  66 SW5       30.19S
NEW ULM        SUNNY     54  46  76 SW7       30.18S
ST JAMES       SUNNY     57  45  62 SW7       30.19F
FAIRMONT       SUNNY     55  43  62 SW6       30.19F
GLENCOE        SUNNY     56  44  65 S7        30.16F
FARIBAULT      SUNNY     55  45  67 S6        30.19S
OWATONNA       SUNNY     54  45  71 SW6       30.19F
WASECA         SUNNY     52  41  66 SW7       30.21F
ALBERT LEA     SUNNY     55  45  67 SW5       30.20F
$$
MNZ078>079-086>088-094>096-161600-
   Southeast Minnesota

CITY           SKY/WX    TMP DP  RH WIND       PRES   REMARKS
ROCHESTER      SUNNY     56  44  64 W7        30.22R
RED WING       SUNNY     55  43  62 W5        30.18S
STANTON        SUNNY     55  46  71 SW5       30.18S
DODGE CENTER   SUNNY     55  45  67 SW7       30.20S
WINONA         SUNNY     52  46  82 CALM      30.21S
AUSTIN         SUNNY     54  45  71 SW3       30.20F
PRESTON        SUNNY     53  48  81 SW8       30.22R
$$
ABBREVIATIONS USED IN REMARKS
   TC - TEMPERATURES IN CELSIUS
  WCI - WIND CHILL INDEX
   HX - HEAT INDEX
  VSB - VISIBILITY
$$


USA.gov is the U.S. government's official web portal to all federal, state and local government web resources and services.